Content
SEND FEEDBACK

Daily
Averages
Monthly
Summary
United States of America

POTTS JUNCTION, GUAM


Home > North America > United States > Guam
Elevation: 360 feet     Latitude: 13 33N     Longitude: 144 50E

WEATHER
 
SELECT A DAY
Number of Records: 208,892;   Date Range: 1/1/95 - 7/22/14
 
SHARE

PRINT THIS DATA

[ ← Previous Day ]
WEATHER ALMANAC - DECEMBER 17, 2013
[ Next Day → ]
[ °C ]   °F
Weather ElementAverageHighLow
Temperature81.4 °F84.2 °F (9:27 am)78.1 °F (4:54 am)
Dewpoint74.7 °F78.1 °F (12:54 pm)73 °F (1:54 am)
Humidity80.4 %91 % (12:54 pm)74 % (9:27 am)
Barometer29.82 in29.88 in (9:27 am)29.76 in (2:54 pm)
Wind Speed13.7 mph19.6 mph (1:54 pm)
Wind Gust26.5 mph (4:09 pm)
Weather ElementAverage
Visibility9.8 mi
Wind DirectionENE (56.4 °)

Weather ElementTotal
Precipitation0.01 in
Cooling Degree Days16.2 (Base 65)
Growing Degree Days31.2 (Base 50)
Averaged from 33 records on December 17, 2013
WEATHER CONDITIONS BREAKOUT
WIND DIRECTION BREAKOUT
WEATHER BY HOUR - DECEMBER 17, 2013
[ °C ]   °F
Local TimeTemperatureDewpointHumidityBarometerVisibilityWind DirectionWind SpeedGust SpeedPrecipitationEventsConditions
1:54 AM79.0 °F73.0 °F82 %29.78 in10.0 miENE (60°)13.8 mphClear
2:54 AM79.0 °F73.0 °F82 %29.77 in10.0 miENE (60°)11.5 mphClear
3:54 AM79.0 °F73.0 °F82 %29.78 in10.0 miNE (50°)11.5 mphPartly Cloudy
4:54 AM78.1 °F73.9 °F87 %29.78 in10.0 miENE (70°)10.4 mph0.00 inPartly Cloudy
5:54 AM78.1 °F73.9 °F87 %29.80 in10.0 miENE (60°)8.1 mphClear
6:54 AM78.1 °F75.0 °F90 %29.82 in10.0 miENE (70°)9.2 mphPartly Cloudy
7:54 AM81.0 °F75.0 °F82 %29.85 in10.0 miENE (60°)10.4 mphClear
8:54 AM82.0 °F75.0 °F79 %29.86 in10.0 miENE (70°)10.4 mph19.6 mph0.00 inPartly Cloudy
9:27 AM84.2 °F75.2 °F74 %29.88 in10.0 miENE (60°)17.3 mph20.7 mphMostly Cloudy
9:37 AM82.4 °F73.4 °F74 %29.88 in10.0 miENE (60°)16.1 mphMostly Cloudy
9:44 AM84.2 °F75.2 °F74 %29.88 in10.0 miENE (70°)12.7 mphMostly Cloudy
9:54 AM82.9 °F75.0 °F77 %29.86 in10.0 miENE (60°)16.1 mph20.7 mphMostly Cloudy
10:26 AM82.4 °F75.2 °F79 %29.87 in10.0 miENE (60°)12.7 mphMostly Cloudy
10:37 AM84.2 °F75.2 °F74 %29.87 in10.0 miENE (60°)15.0 mphMostly Cloudy
10:54 AM84.0 °F75.9 °F76 %29.84 in10.0 miENE (70°)13.8 mph0.00 inMostly Cloudy
11:54 AM84.0 °F75.0 °F74 %29.82 in8.0 miENE (70°)15.0 mphScattered Clouds
12:14 PM82.4 °F75.2 °F79 %29.84 in10.0 miNE (50°)17.3 mph21.9 mph0.00 inMostly Cloudy
12:54 PM81.0 °F78.1 °F91 %29.79 in6.0 miNE (40°)12.7 mph0.00 inRainLight Rain
1:32 PM82.4 °F75.2 °F79 %29.79 in10.0 miNE (50°)16.1 mph0.00 inMostly Cloudy
1:54 PM84.0 °F75.0 °F74 %29.77 in10.0 miNE (50°)19.6 mph0.00 inMostly Cloudy
2:54 PM84.0 °F75.0 °F74 %29.76 in10.0 miENE (60°)16.1 mphOvercast
3:12 PM82.4 °F75.2 °F79 %29.79 in10.0 miNE (40°)16.1 mphOvercast
3:54 PM82.9 °F75.0 °F77 %29.76 in10.0 miNE (40°)17.3 mph0.01 inScattered Clouds
4:09 PM82.4 °F75.2 °F79 %29.78 in10.0 miENE (60°)17.3 mph26.5 mphScattered Clouds
4:23 PM82.4 °F75.2 °F79 %29.79 in10.0 miNE (50°)15.0 mph25.3 mphMostly Cloudy
4:54 PM82.0 °F75.0 °F79 %29.78 in10.0 miENE (60°)16.1 mphMostly Cloudy
5:54 PM82.0 °F75.0 °F79 %29.79 in10.0 miNE (50°)12.7 mphMostly Cloudy
6:54 PM80.1 °F75.0 °F85 %29.81 in10.0 miNE (50°)12.7 mphScattered Clouds
7:54 PM80.1 °F75.0 °F85 %29.82 in10.0 miENE (60°)12.7 mph0.00 inScattered Clouds
8:54 PM79.0 °F73.9 °F84 %29.83 in10.0 miNE (50°)13.8 mphPartly Cloudy
9:54 PM78.1 °F73.9 °F87 %29.83 in10.0 miNE (50°)10.4 mphPartly Cloudy
10:54 PM79.3 °F73.9 °F83 %29.82 in10.0 miNE (50°)11.5 mphClear
11:54 PM78.1 °F73.9 °F87 %29.81 in10.0 miNE (40°)11.5 mphClear
Hourly data recorded from PGUM, located miles away from Potts Junction, Guam







STORIES FROM OUR PARTNERS